sat.trackr.live / text

‹ back to catalog

INTELSAT 22 (IS-22)

NORAD 38098 · 2012-011A

PAYLOAD ACTIVE UNKNOWN

§ Identity

Operator
Country
ITSO
Launch date
2012-03-25
Launch site
TYMSC
Launch vehicle
Mass (kg)
RCS (m²)
0.00

Purposes: comms

External: N2YO · Heavens-Above · Gunter

§ Orbital elements

Epoch: 2026-09-20T03:34:26.160960Z

Period
1,436.12 min
Inclination
0.0177°
Eccentricity
0.0001645
Mean motion
1.00270362 rev/d
Perigee alt
35,780.1 km
Apogee alt
35,793.9 km
Semi-major
42,165.1 km
B*
0.0000e+0
RAAN
223.3146°
Arg perigee
310.5213°
Mean anomaly
310.9449°
Rev number
814

§ Raw data

INTELSAT 22 (IS-22)1 38098U 12011A   26263.14891390 -.00000063  00000+0  00000+0 0  99952 38098   0.0177 223.3146 0001645 310.5213 310.9449  1.00270362  8141

JSON: /api/v1/satellites/38098 · /tle

For live sub-satellite position, see the globe view (requires WebGL).

§ Visibility from observer

Set your observer location to see the next 7 days of passes ≥ 10°. The values pass through the URL so the page stays shareable.

No JS? Fill the form by hand. The geolocation button needs JavaScript.